Overview Statistics Trail Chart Weather Telemetry Raw packets
 

This is the latest recevied weather packets stored in our database for station/object KJ5FA-10. If no packets are shown the sender has not sent any weather packets the latest 10 day(s).

<< 28 29 30 31 32 >>
Time Temp. Humidity Pressure Rain* Wind** Luminosity Snow
1787751584 25° C 79% 1015.6 hPa 0 mm - - -
1787750684 24.44° C 83% 1015.4 hPa 0 mm - - -
1787749783 23.89° C 85% 1015.5 hPa 0 mm - - -
1787748883 23.89° C 86% 1015.5 hPa 0 mm - - -
1787747983 23.89° C 87% 1015.6 hPa 0 mm - - -
1787747083 23.33° C 89% 1015.4 hPa 0 mm - - -
1787746183 23.33° C 90% 1015.4 hPa 0 mm - - -
1787745284 23.33° C 89% 1015.3 hPa 0 mm - - -
1787744384 23.33° C 90% 1015.5 hPa 0 mm - - -
1787743484 23.33° C 92% 1015.2 hPa 0 mm - - -
1787742584 23.89° C 91% 1015.3 hPa 0 mm - - -
1787741684 23.89° C 91% 1015.4 hPa 0 mm - - -
1787740783 23.89° C 91% 1015.2 hPa 0 mm - - -
1787739883 23.89° C 92% 1015.2 hPa 0 mm - - -
1787738983 23.89° C 91% 1015.3 hPa 0 mm - - -
1787738083 23.89° C 90% 1015.2 hPa 0 mm - - -
1787737183 24.44° C 89% 1015.1 hPa 0 mm - - -
1787735383 25° C 88% 1015.3 hPa 0 mm - - -
1787734483 25° C 88% 1015.1 hPa 0 mm - - -
1787733583 25° C 88% 1015.4 hPa 0 mm - - -
1787731783 25° C 88% 1015.3 hPa 0 mm - - -
1787730883 25° C 88% 1015.6 hPa 0 mm - - -
1787728603 25.56° C 87% 1015.5 hPa 0 mm - - -
1787727281 25° C 88% 1015.3 hPa 0 mm - - -
1787726381 25° C 91% 1015.6 hPa 0 mm - - -

* Rain latest hour (hover to see other rain measurements)
** Current wind speed in m/s (hover to see current wind gust speed)